[[{"header":{"parameterUnit":"m.s-1","parameterCategory":1,"la1":30.2991,"la2":30.254,"lo1":-89.0895,"lo2":-89.0444,"dy":0.0017,"dx":0.0017,"nx":28,"ny":28,"refTime":"2024-05-28T03:00:00:Z","depth":0,"parameterNumber":2,"parameterNumberName":"U-component_of_WINDS"},"data":[0,0,0,0,0,0,0,0,0,0,0,0,0,0,0,0,0,0,0,0,0,0,0,0,0,0,0,0,0,0,0,0,0,0,0,0,0,0,0,0,0,0,0,0,0,0,0,0,0,0,0,0,0,0,0,0,0,0,-1.7261,-1.7261,0,-1.7258,-1.7258,-1.7258,-1.7247,-1.7247,-1.7246,-1.7246,-1.7243,-1.7243,-1.7243,0,0,0,0,0,0,0,0,0,0,0,0,0,-1.7258,-1.7258,-1.7261,-1.7261,-1.7261,-1.7258,-1.7258,-1.7258,-1.7247,-1.7247,-1.7246,-1.7246,-1.7243,-1.7243,-1.7243,0,0,0,0,0,0,0,0,0,0,0,0,0,-1.7258,-1.7258,-1.7261,-1.7255,-1.7254,-1.7258,-1.7258,-1.7257,-1.7247,-1.7247,-1.7246,-1.7246,-1.7243,-1.7243,-1.7243,-1.7251,0,0,-1.7244,-1.7244,0,0,0,0,0,0,0,0,-1.7258,-1.7258,-1.7256,-1.7255,-1.7255,-1.7252,-1.7255,-1.7255,-1.7247,-1.725,-1.7246,-1.7246,-1.7246,-1.7246,-1.7246,-1.7251,-1.7251,-1.7244,-1.7244,-1.7244,-1.7244,0,0,0,0,0,0,0,-1.7258,-1.7258,-1.7259,-1.7256,-1.7255,-1.7253,-1.7252,-1.7255,-1.725,-1.725,-1.7249,-1.7249,-1.7246,-1.7246,-1.7246,-1.7251,-1.7244,-1.7244,-1.7244,-1.7244,-1.7263,-1.7264,0,0,0,0,0,0,-1.7258,-1.7258,-1.726,-1.7259,-1.7255,-1.7253,-1.7253,-1.7253,-1.725,-1.7249,-1.7249,-1.7248,-1.7246,-1.7246,-1.7246,-1.7255,-1.7244,-1.7244,-1.7244,-1.7263,-1.7264,-1.7264,0,0,0,0,0,0,-1.7258,-1.7259,-1.726,-1.7258,-1.7258,-1.7254,-1.7255,-1.7254,-1.7254,-1.7249,-1.7248,-1.725,-1.7246,-1.7246,-1.725,-1.7255,-1.7244,-1.7244,-1.7263,-1.7263,-1.7264,-1.7275,0,0,0,0,0,0,-1.7258,-1.7259,-1.7262,-1.7259,-1.7258,-1.7264,-1.7255,-1.7254,-1.7254,-1.7253,-1.725,-1.7249,-1.7245,-1.725,-1.725,-1.7255,-1.7244,-1.7262,-1.7263,-1.7264,-1.7274,-1.7276,-1.7277,0,0,0,0,0,-1.7258,-1.7265,-1.7262,-1.7262,-1.7262,-1.7264,-1.7264,-1.7259,-1.7255,-1.7258,-1.7255,-1.725,-1.7255,-1.7251,-1.7251,-1.7256,-1.7262,-1.7263,-1.7264,-1.7273,-1.7275,-1.7277,0,0,0,0,0,0,-1.7268,-1.7264,-1.7261,-1.7266,-1.7266,-1.7262,-1.7266,-1.7262,-1.7262,-1.7261,-1.7255,-1.7255,-1.726,-1.7259,-1.7254,-1.7264,-1.7258,-1.7259,-1.7265,-1.7267,-1.7268,-1.7268,-1.7245,0,0,0,0,0,-1.7271,-1.7273,-1.727,-1.7275,-1.7275,-1.7271,-1.7271,-1.7268,-1.7267,-1.7266,-1.7264,-1.7263,-1.7265,-1.7266,-1.7267,-1.7274,-1.7273,-1.7278,-1.728,-1.7281,-1.7282,-1.7285,-1.7287,-1.7267,-1.7267,-1.7267,0,0,-1.7277,-1.7275,-1.7276,-1.7277,-1.7276,-1.7278,-1.727,-1.7273,-1.7275,-1.7267,-1.7271,-1.7269,-1.7268,-1.7274,-1.7277,-1.7273,-1.7287,-1.7282,-1.7283,-1.7283,-1.7287,-1.7288,-1.729,-1.7268,-1.7267,-1.7267,0,0,-1.7288,-1.7287,-1.7291,-1.7291,-1.729,-1.7287,-1.7288,-1.7286,-1.7285,-1.7289,-1.7283,-1.7285,-1.7288,-1.7288,-1.7288,-1.7301,-1.7296,-1.7301,-1.7309,-1.7313,-1.7315,-1.7316,-1.7321,-1.7322,-1.7302,-1.7302,-1.7302,0,-1.7295,-1.7299,-1.7294,-1.7297,-1.7298,-1.7292,-1.7296,-1.7296,-1.7295,-1.7296,-1.7292,-1.7296,-1.7294,-1.73,-1.7304,-1.7304,-1.7305,-1.7301,-1.7315,-1.7316,-1.7318,-1.7322,-1.7323,-1.7303,-1.7303,-1.7303,-1.7303,0,-1.7307,-1.731,-1.7314,-1.7313,-1.7314,-1.7318,-1.7315,-1.7316,-1.7313,-1.7311,-1.7316,-1.7315,-1.7315,-1.7317,-1.7314,-1.7323,-1.732,-1.7316,-1.7309,-1.732,-1.7324,-1.7325,-1.7304,-1.7304,-1.7303,-1.7303,0,0,-1.7324,-1.7322,-1.7323,-1.7323,-1.7322,-1.7324,-1.7328,-1.7329,-1.733,-1.7331,-1.7334,-1.7337,-1.7333,-1.7334,-1.7331,-1.7334,-1.7344,-1.7329,-1.7329,-1.7332,-1.7354,-1.7356,-1.7358,-1.7342,-1.7342,-1.7342,-1.7354,0,-1.7334,-1.734,-1.7337,-1.7344,-1.7346,-1.7341,-1.7344,-1.7344,-1.7343,-1.7345,-1.7343,-1.7346,-1.7341,-1.7341,-1.7344,-1.7342,-1.7349,-1.7342,-1.7344,-1.7344,-1.7343,-1.736,-1.7363,-1.7374,-1.7355,-1.7355,-1.7356,0,-1.7347,-1.7348,-1.7355,-1.7354,-1.7355,-1.7358,-1.7359,-1.7361,-1.7361,-1.736,-1.7361,-1.7357,-1.7362,-1.7356,-1.7361,-1.7357,-1.7358,-1.7357,-1.7358,-1.7357,-1.735,-1.7359,-1.7377,-1.7378,-1.7358,-1.7358,-1.7358,0,-1.7357,-1.7361,-1.7365,-1.7366,-1.7365,-1.7367,-1.7367,-1.7367,-1.7368,-1.7369,-1.737,-1.7372,-1.7372,-1.7374,-1.7371,-1.7367,-1.7377,-1.7371,-1.7376,-1.7376,-1.7378,-1.7377,-1.7395,-1.738,-1.738,-1.738,-1.738,0,-1.7369,-1.7373,-1.737,-1.7373,-1.7378,-1.7374,-1.7379,-1.7379,-1.7379,-1.7382,-1.7378,-1.738,-1.7377,-1.7379,-1.7378,-1.7383,-1.7383,-1.7382,-1.7381,-1.7382,-1.7382,-1.7382,-1.7381,-1.738,-1.738,-1.738,-1.738,0,-1.7381,-1.7379,-1.7384,-1.7383,-1.7383,-1.7386,-1.7386,-1.7388,-1.7387,-1.7391,-1.7391,-1.7389,-1.7392,-1.739,-1.7393,-1.7392,-1.7398,-1.7397,-1.7398,-1.7397,-1.7402,-1.7402,-1.742,-1.7422,-1.7406,-1.7406,-1.7407,0,-1.7388,-1.7391,-1.7391,-1.7393,-1.7393,-1.7395,-1.7396,-1.7394,-1.7395,-1.7396,-1.7399,-1.7402,-1.7403,-1.7408,-1.7407,-1.741,-1.7408,-1.7414,-1.7408,-1.7409,-1.7407,-1.7407,-1.7407,-1.7415,-1.7415,-1.7415,-1.7415,0,-1.7401,-1.74,-1.7402,-1.7404,-1.7405,-1.7407,-1.7408,-1.7409,-1.7407,-1.7409,-1.7411,-1.7413,-1.7416,-1.7419,-1.7421,-1.7421,-1.7418,-1.7418,-1.7419,-1.7419,-1.7419,-1.7418,-1.74,-1.7417,-1.7417,-1.7417,-1.7416,-1.7416,-1.741,-1.7413,-1.7413,-1.7416,-1.7416,-1.7417,-1.742,-1.7419,-1.7422,-1.7424,-1.7423,-1.7426,-1.7427,-1.7429,-1.743,-1.7433,-1.743,-1.7432,-1.7432,-1.7433,-1.7433,-1.742,-1.7433,-1.7433,-1.7433,-1.7433,-1.7433,0,-1.7422,-1.7422,-1.7425,-1.7426,-1.7428,-1.7426,-1.7427,-1.7429,-1.7432,-1.7433,-1.7435,-1.7439,-1.7442,-1.7441,-1.7444,-1.7446,-1.7445,-1.7447,-1.7446,-1.7446,-1.7436,-1.7434,-1.7448,-1.7448,-1.7448,-1.7448,-1.7448,-1.7448,-1.7429,-1.7433,-1.7432,-1.7437,-1.7438,-1.7441,-1.7442,-1.7443,-1.7444,-1.7448,-1.745,-1.745,-1.7451,-1.7454,-1.7456,-1.7456,-1.7457,-1.746,-1.7459,-1.7449,-1.7447,-1.7446,-1.7444,-1.746,-1.746,-1.7469,-1.7469,-1.7469]},{"header":{"parameterUnit":"m.s-1","parameterCategory":1,"la1":30.2991,"la2":30.254,"lo1":-89.0895,"lo2":-89.0444,"dy":0.0017,"dx":0.0017,"nx":28,"ny":28,"refTime":"2024-05-28T03:00:00:Z","depth":0,"parameterNumber":3,"parameterNumberName":"V-component_of_WINDS"},"data":[0,0,0,0,0,0,0,0,0,0,0,0,0,0,0,0,0,0,0,0,0,0,0,0,0,0,0,0,0,0,0,0,0,0,0,0,0,0,0,0,0,0,0,0,0,0,0,0,0,0,0,0,0,0,0,0,0,0,2.6517,2.6518,0,2.6582,2.6583,2.6583,2.6584,2.6584,2.6583,2.6582,2.6646,2.6649,2.6651,0,0,0,0,0,0,0,0,0,0,0,0,0,2.6394,2.6396,2.6517,2.6518,2.6519,2.6582,2.6583,2.6583,2.6584,2.6583,2.6583,2.6582,2.6646,2.6649,2.6652,0,0,0,0,0,0,0,0,0,0,0,0,0,2.6452,2.6397,2.6517,2.6527,2.6529,2.6582,2.6583,2.6584,2.6585,2.6583,2.6582,2.6581,2.6645,2.6648,2.6652,2.6699,0,0,2.6663,2.6665,0,0,0,0,0,0,0,0,2.6449,2.6456,2.6525,2.6526,2.6528,2.6574,2.6563,2.6622,2.6585,2.6563,2.6582,2.6581,2.6623,2.6629,2.6643,2.6702,2.6705,2.6664,2.6666,2.6667,2.6668,0,0,0,0,0,0,0,2.6444,2.6454,2.6543,2.6526,2.6528,2.6528,2.6535,2.6574,2.6599,2.6565,2.6565,2.6573,2.6624,2.664,2.6645,2.6706,2.6663,2.6667,2.6669,2.667,2.6807,2.6808,0,0,0,0,0,0,2.6439,2.645,2.6541,2.6545,2.6485,2.6531,2.6539,2.656,2.6599,2.6603,2.6574,2.6573,2.6634,2.664,2.6647,2.6705,2.6667,2.6671,2.6673,2.6805,2.6807,2.6808,0,0,0,0,0,0,2.6436,2.6447,2.6538,2.6498,2.6509,2.6534,2.6559,2.6562,2.6578,2.6606,2.661,2.6586,2.6633,2.6642,2.6686,2.6707,2.6672,2.6676,2.6804,2.6806,2.6808,2.6821,0,0,0,0,0,0,2.6432,2.6446,2.6464,2.6498,2.6511,2.6577,2.656,2.6564,2.6585,2.6584,2.6618,2.6622,2.6633,2.6681,2.669,2.6712,2.6679,2.6802,2.6804,2.6807,2.6819,2.6824,2.6827,0,0,0,0,0,2.6428,2.6465,2.6465,2.6476,2.6535,2.6578,2.6585,2.6598,2.6586,2.6605,2.6623,2.6621,2.6703,2.6685,2.6696,2.6719,2.68,2.6804,2.6807,2.6817,2.6823,2.6827,0,0,0,0,0,0,2.6432,2.647,2.647,2.6519,2.6545,2.6578,2.6602,2.6603,2.6633,2.6631,2.6644,2.6652,2.6696,2.6712,2.6691,2.6767,2.6751,2.6756,2.6755,2.676,2.6764,2.676,2.6682,0,0,0,0,0,2.6439,2.6471,2.6502,2.6542,2.6555,2.6576,2.6595,2.6603,2.663,2.6641,2.6662,2.6688,2.672,2.6741,2.6772,2.6821,2.6829,2.6842,2.6846,2.685,2.6854,2.6882,2.6889,2.6819,2.6819,2.6819,0,0,2.6453,2.6478,2.6497,2.6544,2.6565,2.6598,2.6586,2.6621,2.6645,2.6646,2.669,2.6706,2.6736,2.6784,2.6805,2.6798,2.6875,2.6854,2.6856,2.6859,2.6886,2.6893,2.6898,2.6821,2.682,2.682,0,0,2.6496,2.6517,2.6554,2.6575,2.6608,2.6622,2.663,2.6663,2.6674,2.6718,2.672,2.6749,2.6803,2.6825,2.6843,2.6894,2.6894,2.6904,2.6926,2.6953,2.6958,2.6963,2.6982,2.6989,2.6908,2.6908,2.6908,0,2.6509,2.6559,2.6572,2.6608,2.6628,2.6631,2.6668,2.6688,2.6729,2.6743,2.6734,2.6803,2.6824,2.6876,2.6889,2.6903,2.6914,2.69,2.6957,2.6962,2.6966,2.6985,2.6992,2.6909,2.6909,2.6909,2.6909,0,2.6574,2.6609,2.6634,2.6674,2.6697,2.6733,2.6751,2.6773,2.6778,2.6793,2.6838,2.6863,2.6899,2.6912,2.6917,2.6965,2.696,2.6954,2.6938,2.6974,2.6991,2.6998,2.6911,2.691,2.691,2.691,0,0,2.6622,2.6669,2.6678,2.6696,2.6732,2.6759,2.6795,2.6831,2.685,2.6877,2.6908,2.6954,2.6949,2.697,2.6977,2.7001,2.7041,2.6992,2.6993,2.7001,2.7096,2.7101,2.7109,2.7041,2.7042,2.7043,2.7094,0,2.6669,2.6734,2.6746,2.6802,2.6834,2.6838,2.6869,2.6894,2.6909,2.6938,2.6954,2.6987,2.6977,2.699,2.7013,2.7031,2.706,2.7027,2.7069,2.7071,2.7062,2.7118,2.7123,2.717,2.7101,2.7102,2.7103,0,2.6733,2.6763,2.6822,2.6854,2.6868,2.6896,2.6931,2.6958,2.6987,2.6996,2.702,2.7025,2.7062,2.7044,2.7096,2.7073,2.7091,2.7102,2.7105,2.7109,2.7089,2.7125,2.7185,2.7192,2.7113,2.7112,2.7112,0,2.6762,2.6817,2.686,2.6876,2.6914,2.6934,2.6951,2.6978,2.6999,2.7029,2.7043,2.7076,2.7095,2.712,2.7134,2.712,2.7185,2.7168,2.7194,2.7194,2.7208,2.7207,2.7273,2.7218,2.7218,2.7218,2.7218,0,2.6814,2.685,2.6874,2.6901,2.6941,2.6955,2.6995,2.7012,2.7036,2.7066,2.707,2.7098,2.7115,2.7144,2.7155,2.7197,2.7205,2.7213,2.7216,2.7214,2.7213,2.7226,2.7223,2.722,2.722,2.7219,2.7219,0,2.6854,2.6871,2.6918,2.6951,2.696,2.6989,2.7017,2.7042,2.7057,2.7094,2.7104,2.7127,2.7162,2.7179,2.7222,2.723,2.7277,2.7277,2.7268,2.7269,2.7294,2.7292,2.7371,2.7382,2.732,2.732,2.7321,0,2.6886,2.6914,2.695,2.697,2.6988,2.7021,2.7042,2.7057,2.7079,2.7114,2.7136,2.7171,2.7201,2.7258,2.7278,2.7311,2.7313,2.7338,2.7318,2.7315,2.7314,2.7313,2.7316,2.7342,2.7343,2.7343,2.7344,0,2.6942,2.6949,2.698,2.7014,2.704,2.7068,2.7095,2.7111,2.713,2.7155,2.7191,2.7214,2.7259,2.7295,2.733,2.7347,2.7349,2.735,2.7358,2.7356,2.7349,2.7354,2.7279,2.7348,2.7348,2.7347,2.7347,2.7347,2.6979,2.7005,2.7034,2.7069,2.7091,2.7116,2.7142,2.716,2.7191,2.7229,2.7235,2.7275,2.7303,2.735,2.7368,2.7399,2.7393,2.7404,2.7407,2.741,2.7412,2.7344,2.7406,2.7405,2.7405,2.7405,2.7405,0,2.7036,2.7055,2.7086,2.7124,2.7152,2.7151,2.7181,2.7204,2.7238,2.7265,2.7294,2.7336,2.7371,2.7394,2.7429,2.7449,2.7451,2.7458,2.7457,2.7461,2.7415,2.7405,2.7456,2.7456,2.7456,2.7456,2.7456,2.7456,2.7068,2.7111,2.7122,2.7176,2.7195,2.7234,2.7251,2.7274,2.7296,2.7343,2.7372,2.7387,2.7412,2.7449,2.7481,2.7487,2.75,2.7507,2.7513,2.7469,2.7464,2.7459,2.745,2.751,2.751,2.7557,2.7557,2.7557]}]]